Weather History for Roseau, MN

Change the Weather History Date:

Friday, February 8, 2013

  Actual Average Record
Temperature  
Mean Temperature 6 °F -  
Max Temperature 26 °F 16 °F 46 °F (1991)
Min Temperature -14 °F -6 °F -36 °F (1979)
Degree Days  
Heating Degree Days 59    
Moisture  
Dew Point 4 °F    
Average Humidity 74    
Maximum Humidity 86    
Minimum Humidity 69    
Precipitation  
Precipitation 0.00 in - - ()
Sea Level Pressure  
Sea Level Pressure 30.18 in    
Wind  
Wind Speed 4 mph (SSE)    
Max Wind Speed 14 mph    
Max Gust Speed -    
Visibility 9 miles    
Events Snow    
Averages and records for this station are not official NWS values.
T = Trace of Precipitation, MM = Missing Value Source: NWS Daily Summary

Daily Weather History Graph

Daily Weather History Graph

Search for Another Location

Airport:

Trip Planner

Search our weather history database for the weather conditions in past years. The results will help you decide how hot, cold, wet, or windy it might be!

Date:

Astronomy

Feb. 08, 2013 Rise Set
Actual Time 7:42 AM CST 5:32 PM CST
Civil Twilight 7:08 AM CST 6:05 PM CST
Nautical Twilight 6:31 AM CST 6:43 PM CST
Astronomical Twilight 5:54 AM CST 7:19 PM CST
Moon 6:15 AM CST (2/8) 4:04 PM CST (2/8)
Length of Visible Light 10h 56m
Length of Day
9h 50m
Waning Crescent, 3% of the Moon is Illuminated
Feb 8
Waning Crescent
Feb 10
New
Feb 17
First Quarter
Feb 25
Full
Mar 4
Last Quarter

Hourly Weather History & Observations

Time (CST) Temp. Windchill Dew Point Humidity Pressure Visibility Wind Dir Wind Speed Gust Speed Precip Events Conditions
12:15 AM -4.0 °F - -9.4 °F 78% 30.28 in 10.0 mi Calm Calm - N/A   Clear
12:34 AM -7.6 °F - -14.8 °F 71% 30.29 in 10.0 mi Calm Calm - N/A   Clear
12:54 AM -7.6 °F - -14.8 °F 71% 30.29 in 10.0 mi Calm Calm - N/A   Clear
1:14 AM -9.4 °F - -16.6 °F 71% 30.28 in 10.0 mi Calm Calm - N/A   Clear
1:34 AM -9.4 °F - -14.8 °F 77% 30.28 in 10.0 mi Calm Calm - N/A   Clear
1:54 AM -7.6 °F - -13.0 °F 77% 30.28 in 10.0 mi Calm Calm - N/A   Clear
2:15 AM -11.2 °F - -16.6 °F 77% 30.27 in 10.0 mi Calm Calm - N/A   Clear
2:34 AM -9.4 °F - -16.6 °F 71% 30.27 in 10.0 mi Calm Calm - N/A   Clear
2:54 AM -7.6 °F - -13.0 °F 77% 30.27 in 10.0 mi Calm Calm - N/A   Clear
3:34 AM -7.6 °F - -13.0 °F 77% 30.26 in 10.0 mi Calm Calm - N/A   Clear
3:54 AM -9.4 °F - -14.8 °F 77% 30.26 in 10.0 mi Calm Calm - N/A   Clear
4:15 AM -9.4 °F - -16.6 °F 71% 30.25 in 10.0 mi Calm Calm - N/A   Clear
4:34 AM -11.2 °F - -18.4 °F 70% 30.25 in 10.0 mi Calm Calm - N/A   Clear
4:54 AM -11.2 °F - -18.4 °F 70% 30.26 in 10.0 mi Calm Calm - N/A   Clear
5:14 AM -13.0 °F - -20.2 °F 70% 30.26 in 10.0 mi Calm Calm - N/A   Clear
5:34 AM -14.8 °F - -20.2 °F 77% 30.26 in 10.0 mi Calm Calm - N/A   Clear
5:54 AM -14.8 °F - -20.2 °F 77% 30.26 in 10.0 mi Calm Calm - N/A   Clear
6:14 AM -13.0 °F - -20.2 °F 70% 30.26 in 10.0 mi Calm Calm - N/A   Clear
6:34 AM -7.6 °F - -14.8 °F 71% 30.26 in 10.0 mi Calm Calm - N/A   Clear
6:54 AM -2.2 °F - -7.6 °F 78% 30.26 in 10.0 mi Calm Calm - N/A   Clear
7:14 AM -7.6 °F - -14.8 °F 71% 30.26 in 10.0 mi Calm Calm - N/A   Clear
7:34 AM -2.2 °F - -7.6 °F 78% 30.26 in 10.0 mi Calm Calm - N/A   Clear
7:54 AM -0.4 °F - -5.8 °F 78% 30.26 in 10.0 mi Calm Calm - N/A   Clear
8:14 AM 3.2 °F - -2.2 °F 78% 30.25 in 10.0 mi Calm Calm - N/A Snow Light Snow
8:35 AM 3.2 °F -4.2 °F -2.2 °F 78% 30.25 in 0.8 mi SSE 3.5 mph - N/A Snow Light Snow
8:54 AM 3.2 °F - -2.2 °F 78% 30.25 in 7.0 mi Calm Calm - N/A Snow Light Snow
9:14 AM 3.2 °F - -2.2 °F 78% 30.25 in 1.2 mi Calm Calm - N/A Snow Light Snow
9:35 AM 8.6 °F 2.0 °F 3.2 °F 79% 30.24 in 1.8 mi SSE 3.5 mph - N/A Snow Light Snow
9:54 AM 8.6 °F 0.1 °F 3.2 °F 79% 30.24 in 3.0 mi SSE 4.6 mph - N/A Snow Light Snow
10:14 AM 10.4 °F -0.4 °F 5.0 °F 79% 30.24 in 2.5 mi SSE 6.9 mph - N/A Snow Light Snow
10:59 AM 15.8 °F 5.1 °F 10.4 °F 79% 30.24 in 5.0 mi South 8.1 mph - N/A Snow Light Snow
11:14 AM 15.8 °F 4.2 °F 10.4 °F 79% 30.23 in 10.0 mi South 9.2 mph - N/A   Mostly Cloudy
11:35 AM 17.6 °F 5.7 °F 12.2 °F 79% 30.23 in 10.0 mi South 10.4 mph - N/A   Scattered Clouds
11:54 AM 17.6 °F 6.4 °F 12.2 °F 79% 30.23 in 10.0 mi South 9.2 mph - N/A   Scattered Clouds
12:14 PM 17.6 °F 6.4 °F 12.2 °F 79% 30.21 in 10.0 mi South 9.2 mph - N/A   Mostly Cloudy
12:35 PM 17.6 °F 7.3 °F 12.2 °F 79% 30.21 in 10.0 mi South 8.1 mph - N/A   Scattered Clouds
12:54 PM 19.4 °F 7.2 °F 15.8 °F 86% 30.19 in 10.0 mi South 11.5 mph - N/A   Scattered Clouds
1:14 PM 21.2 °F 10.1 °F 15.8 °F 80% 30.19 in 10.0 mi South 10.4 mph - N/A   Mostly Cloudy
1:35 PM 21.2 °F 10.1 °F 15.8 °F 80% 30.19 in 10.0 mi South 10.4 mph - N/A   Scattered Clouds
1:54 PM 23.0 °F 10.6 °F 15.8 °F 74% 30.18 in 10.0 mi South 13.8 mph - N/A   Scattered Clouds
2:14 PM 23.0 °F 11.1 °F 15.8 °F 74% 30.18 in 10.0 mi South 12.7 mph - N/A   Clear
2:35 PM 23.0 °F 12.4 °F 15.8 °F 74% 30.16 in 10.0 mi South 10.4 mph - N/A   Scattered Clouds
2:54 PM 24.8 °F 15.3 °F 15.8 °F 69% 30.15 in 10.0 mi South 9.2 mph - N/A   Scattered Clouds
3:14 PM 24.8 °F 16.1 °F 17.6 °F 74% 30.14 in 10.0 mi South 8.1 mph - N/A   Scattered Clouds
3:34 PM 24.8 °F 19.1 °F 17.6 °F 74% 30.14 in 10.0 mi SSE 4.6 mph - N/A   Scattered Clouds
3:54 PM 24.8 °F 17.9 °F 17.6 °F 74% 30.13 in 10.0 mi SE 5.8 mph - N/A   Clear
4:14 PM 26.6 °F 21.2 °F 17.6 °F 69% 30.12 in 10.0 mi SE 4.6 mph - N/A   Clear
4:34 PM 26.6 °F 21.2 °F 17.6 °F 69% 30.12 in 10.0 mi SE 4.6 mph - N/A   Scattered Clouds
4:54 PM 26.6 °F 19.1 °F 17.6 °F 69% 30.11 in 10.0 mi ESE 6.9 mph - N/A   Scattered Clouds
5:14 PM 26.6 °F 16.8 °F 17.6 °F 69% 30.10 in 10.0 mi SE 10.4 mph - N/A   Clear
5:34 PM 26.6 °F 18.2 °F 17.6 °F 69% 30.10 in 10.0 mi SE 8.1 mph - N/A   Scattered Clouds
5:54 PM 24.8 °F 14.6 °F 15.8 °F 69% 30.10 in 10.0 mi SE 10.4 mph - N/A   Clear
6:14 PM 24.8 °F 15.3 °F 15.8 °F 69% 30.10 in 10.0 mi ESE 9.2 mph - N/A   Scattered Clouds
6:34 PM 24.8 °F 15.3 °F 15.8 °F 69% 30.10 in 10.0 mi ESE 9.2 mph - N/A   Mostly Cloudy
6:54 PM 23.0 °F 13.1 °F 15.8 °F 74% 30.09 in 10.0 mi SE 9.2 mph - N/A   Overcast
7:14 PM 24.8 °F 14.6 °F 15.8 °F 69% 30.09 in 10.0 mi SE 10.4 mph - N/A   Overcast
7:34 PM 24.8 °F 12.9 °F 15.8 °F 69% 30.08 in 10.0 mi SE 13.8 mph - N/A   Overcast
7:54 PM 24.8 °F 14.0 °F 15.8 °F 69% 30.08 in 10.0 mi SSE 11.5 mph - N/A   Mostly Cloudy
8:14 PM 24.8 °F 14.6 °F 15.8 °F 69% 30.07 in 10.0 mi SSE 10.4 mph - N/A   Scattered Clouds
8:34 PM 24.8 °F 13.4 °F 15.8 °F 69% 30.07 in 10.0 mi SSE 12.7 mph - N/A   Clear
8:54 PM 24.8 °F 14.0 °F 15.8 °F 69% 30.06 in 10.0 mi SSE 11.5 mph - N/A   Clear
9:14 PM 24.8 °F 14.6 °F 15.8 °F 69% 30.06 in 10.0 mi South 10.4 mph - N/A   Scattered Clouds
9:34 PM 23.0 °F 12.4 °F 15.8 °F 74% 30.06 in 10.0 mi South 10.4 mph - N/A   Scattered Clouds
9:54 PM 23.0 °F 11.7 °F 15.8 °F 74% 30.05 in 10.0 mi SSE 11.5 mph - N/A   Scattered Clouds
10:14 PM 21.2 °F 9.5 °F 15.8 °F 80% 30.05 in 10.0 mi South 11.5 mph - N/A   Mostly Cloudy
10:34 PM 23.0 °F 12.4 °F 15.8 °F 74% 30.06 in 10.0 mi South 10.4 mph - N/A   Overcast
10:54 PM 21.2 °F 9.5 °F 14.0 °F 74% 30.05 in 10.0 mi South 11.5 mph - N/A   Mostly Cloudy
11:14 PM 19.4 °F 8.6 °F 12.2 °F 74% 30.05 in 10.0 mi South 9.2 mph - N/A   Scattered Clouds
11:34 PM 19.4 °F 8.6 °F 12.2 °F 74% 30.05 in 10.0 mi South 9.2 mph - N/A   Mostly Cloudy
11:54 PM 21.2 °F 9.5 °F 14.0 °F 74% 30.04 in 10.0 mi South 11.5 mph - N/A   Overcast